Weather in Verbivka

Ukraine / Kharkiv Region     49°29′17″N   36°50′19″E
temp.,
°C
wind,
m/s
gust,
m/s
humid.,
%
clouds,
%
prec.,
mm/h
press.,
hPa
HPBL,
m
7 may, fri
fri700:00+11nw5886100 0.1 1012398
03:00+9nnw3594100 1.2 1012358
06:00+9nw47938 1.4 1013396
09:00+13nnw34650 1.4 1015808
12:00+16nw23479 0.0 10161892
15:00+18wsw2339100 0.0 10152256
18:00+17ssw244539 0.0 10141803
21:00+12sse345642 0.0 101552
8 may, sat
sat800:00+11se4106097 0.0 1014196
03:00+11sse5126592 0.0 1012299
06:00+12sse61471100 0.1 1011488
09:00+15s91566100 0.1 1010940
12:00+15ssw81476100 0.2 10101137
15:00+13sw51094100 3.5 1010578
18:00+12wnw4990100 3.4 1011542
21:00+9wnw41087100 4.1 1013549
9 may, sun
sun900:00+8wnw4982100 0.2 1014394
03:00+6nw61089100 0.2 1015564
06:00+6nw61081100 0.0 1016863
09:00+8nnw7106896 0.0 10191003
12:00+12nnw8114799 0.0 10191782
15:00+14nnw81041100 0.0 10202781
18:00+12nnw695011 0.1 10221840
21:00+7nnw411715 0.1 1024250
10 may, mon
mon1000:00+5nw410795 0.0 1025253
03:00+4nnw410833 0.0 1026216
06:00+5nnw6147870 0.0 1026398
09:00+10n813575 0.0 10261389
12:00+14n10134697 0.0 10241757
15:00+14n91349100 0.0 10231831
18:00+12n81555100 0.0 10231122
21:00+12nne8165775 0.0 1023824
11 may, tue
tue1100:00+11nne71561100 0.0 1023698
03:00+9n7146855 0.0 1022531
06:00+8n6147599 0.0 1022488
09:00+13nne811685 0.0 1022696
12:00+18ne8106131 0.0 10211174
15:00+17ne7107181 0.0 10211137
18:00+14e7107862 0.5 1023716
21:00+9ene35841 0.5 102478